User: anonymous   Login
Location: Chenango Forks
(42.2242°N, 75.8278°W)
Time: 21:11:48
(UTC-04:00)
Language:

Okean 3 Rocket - Orbit

View from above orbital plane
View from above orbital plane
View from above satellite
View from above satellite

Ground track
Ground track

The orbit data is extracted from the following two-line orbital elements,

1 21398U 91039B   15247.15499145  .00000091  00000-0  90266-5 0  9990
2 21398  82.5221 113.0955 0022075 156.0277 321.0399 14.79508626307491
Epoch (UTC): 04 September 2015 03:43:11
Eccentricity: 0.0022075
inclination: 82.5221°
perigee height: 615 km
apogee height: 646 km
right ascension of ascending node: 113.0955°
argument of perigee: 156.0277°
revolutions per day: 14.79508626
mean anomaly at epoch: 321.0399°
orbit number at epoch: 30749

The dashed part of the orbit path shows where the satellite is in the earth's shadow,  

DLR